Location: Sweet Grass
(48.9965°N, 111.9649°W)
Time: 07:24:14
(UTC+00:00)

N. Korean satellite - Pass Details

Date: 28 November 2022
Orbit: 407 x 442 km, 97.3° (Epoch: 04 February)

Event Time Altitude Azimuth Distance (km) Brightness Sun altitude
Rises 12:02:54 0° 25° (NNE) 2,532 10.5 -27.8°
Reaches altitude 10° 12:05:20 10° 41° (NE) 1,647 9.7 -27.4°
Maximum altitude 12:08:08 22° 93° (E) 1,089 9.1 -26.9°
Drops below altitude 10° 12:10:54 10° 146° (SE) 1,626 9.6 -26.5°
Sets 12:13:16 0° 162° (SSE) 2,489 10.4 -26.1°
